| time (UTC) | temp F | wind direction | speed MPH | gust MPH | rain 1hr in | rain 24hr in | rain mn in | humidity % | barometer mb |
| 20260510063017 | 68 | 68 | 5.0 | 9.0 | 0.00 | 0.00 | 0.00 | 67 | 1012.3 |
| 20260510062017 | 68 | 23 | 6.0 | 14.0 | 0.00 | 0.00 | 0.00 | 69 | 1012.3 |
| 20260510061017 | 68 | 45 | 6.0 | 12.0 | 0.00 | 0.00 | 0.00 | 68 | 1012.4 |
| 20260510060017 | 67 | 45 | 8.0 | 14.0 | 0.00 | 0.00 | 0.00 | 70 | 1012.4 |
| 20260510055017 | 66 | 23 | 4.0 | 7.0 | 0.00 | 0.00 | 0.00 | 73 | 1012.6 |
| 20260510054017 | 66 | 68 | 3.0 | 7.0 | 0.00 | 0.00 | 0.00 | 73 | 1012.7 |
| 20260510053017 | 66 | 23 | 6.0 | 10.0 | 0.00 | 0.00 | 0.00 | 74 | 1012.3 |
| 20260510052017 | 65 | 23 | 4.0 | 7.0 | 0.00 | 0.00 | 0.00 | 74 | 1012.5 |
| 20260510051017 | 65 | 45 | 4.0 | 10.0 | 0.00 | 0.00 | 0.00 | 76 | 1012.5 |
| 20260510050017 | 64 | 45 | 4.0 | 10.0 | 0.00 | 0.00 | 0.00 | 77 | 1012.4 |
| 20260510045017 | 64 | 23 | 8.0 | 13.0 | 0.00 | 0.00 | 0.00 | 77 | 1012.3 |
| 20260510044017 | 63 | 23 | 6.0 | 10.0 | 0.00 | 0.00 | 0.00 | 81 | 1012.5 |
| 20260510043017 | 62 | 45 | 1.0 | 4.0 | 0.00 | 0.00 | 0.00 | 83 | 1012.7 |
| 20260510042017 | 62 | 68 | 2.0 | 6.0 | 0.00 | 0.00 | 0.00 | 82 | 1012.7 |
| 20260510041017 | 62 | 90 | 4.0 | 8.0 | 0.00 | 0.00 | 0.00 | 84 | 1012.5 |
| 20260510040017 | 62 | 45 | 2.0 | 4.0 | 0.00 | 0.00 | 0.00 | 82 | 1012.5 |
| 20260510035017 | 62 | 23 | 4.0 | 7.0 | 0.00 | 0.00 | 0.00 | 82 | 1013.0 |
| 20260510034017 | 62 | 338 | 3.0 | 7.0 | 0.00 | 0.00 | 0.00 | 83 | 1013.3 |
| 20260510033017 | 62 | 338 | 3.0 | 6.0 | 0.00 | 0.00 | 0.00 | 84 | 1013.6 |
| 20260510032017 | 61 | 338 | 3.0 | 6.0 | 0.00 | 0.00 | 0.00 | 85 | 1013.7 |
| 20260510031037 | 61 | 338 | 2.0 | 4.0 | 0.00 | 0.00 | 0.00 | 86 | 1013.8 |
| 20260510030017 | 61 | 338 | 2.0 | 4.0 | 0.00 | 0.00 | 0.00 | 87 | 1013.8 |
| 20260510025057 | 61 | 0.0 | 0.0 | 0.00 | 0.00 | 0.00 | 86 | 1013.9 | |
| 20260510024017 | 61 | 338 | 2.0 | 5.0 | 0.00 | 0.00 | 0.00 | 85 | 1014.2 |
| 20260510023117 | 61 | 293 | 1.0 | 3.0 | 0.00 | 0.00 | 0.00 | 85 | 1014.1 |
| 20260510022017 | 62 | 45 | 2.0 | 4.0 | 0.00 | 0.00 | 0.00 | 83 | 1014.5 |
| 20260510021016 | 63 | 45 | 1.0 | 3.0 | 0.00 | 0.00 | 0.00 | 79 | 1014.1 |
| 20260510020016 | 65 | 135 | 1.0 | 4.0 | 0.00 | 0.00 | 0.00 | 74 | 1014.6 |
| 20260510015016 | 67 | 270 | 1.0 | 6.0 | 0.00 | 0.00 | 0.00 | 68 | 1014.6 |
| 20260510014057 | 67 | 293 | 2.0 | 7.0 | 0.00 | 0.00 | 0.00 | 68 | 1014.5 |
| 20260510013017 | 66 | 293 | 5.0 | 13.0 | 0.00 | 0.00 | 0.00 | 70 | 1014.5 |
| 20260510012017 | 65 | 0.0 | 2.0 | 0.00 | 0.00 | 0.00 | 73 | 1014.4 | |
| 20260510011016 | 65 | 180 | 1.0 | 4.0 | 0.00 | 0.00 | 0.00 | 73 | 1014.5 |
| 20260510010056 | 65 | 270 | 2.0 | 5.0 | 0.00 | 0.00 | 0.00 | 72 | 1014.2 |
| 20260510005017 | 65 | 203 | 3.0 | 7.0 | 0.00 | 0.00 | 0.00 | 71 | 1013.4 |
| 20260510004016 | 65 | 0.0 | 3.0 | 0.00 | 0.00 | 0.00 | 71 | 1012.6 | |
| 20260510003016 | 65 | 68 | 2.0 | 3.0 | 0.00 | 0.00 | 0.00 | 71 | 1012.3 |
| 20260510002036 | 65 | 68 | 3.0 | 6.0 | 0.00 | 0.00 | 0.00 | 71 | 1012.5 |
| 20260510001016 | 65 | 45 | 2.0 | 5.0 | 0.00 | 0.00 | 0.00 | 71 | 1012.9 |
| 20260510000016 | 65 | 45 | 3.0 | 6.0 | 0.00 | 0.00 | 0.00 | 70 | 1013.1 |
| 20260509235016 | 66 | 68 | 1.0 | 4.0 | 0.00 | 0.00 | 0.00 | 69 | 1013.5 |
| 20260509234016 | 65 | 23 | 5.0 | 10.0 | 0.00 | 0.00 | 0.00 | 70 | 1013.2 |
| 20260509233016 | 65 | 45 | 3.0 | 7.0 | 0.00 | 0.00 | 0.00 | 71 | 1013.2 |
| 20260509232036 | 64 | 45 | 1.0 | 2.0 | 0.00 | 0.00 | 0.00 | 74 | 1013.2 |
| 20260509231036 | 64 | 0.0 | 3.0 | 0.00 | 0.00 | 0.00 | 74 | 1013.3 | |
| 20260509230016 | 65 | 90 | 2.0 | 4.0 | 0.00 | 0.00 | 0.00 | 72 | 1013.1 |
| 20260509225016 | 66 | 90 | 1.0 | 4.0 | 0.00 | 0.00 | 0.00 | 71 | 1013.0 |
| 20260509224016 | 66 | 68 | 2.0 | 4.0 | 0.00 | 0.00 | 0.00 | 71 | 1013.3 |
| 20260509223038 | 66 | 45 | 3.0 | 6.0 | 0.00 | 0.00 | 0.00 | 70 | 1013.3 |
| 20260509222036 | 66 | 23 | 4.0 | 6.0 | 0.00 | 0.00 | 0.00 | 69 | 1013.4 |
| 20260509221016 | 66 | 45 | 1.0 | 4.0 | 0.00 | 0.00 | 0.00 | 71 | 1013.5 |
| 20260509220016 | 65 | 45 | 2.0 | 4.0 | 0.00 | 0.00 | 0.00 | 73 | 1013.6 |
| 20260509215017 | 65 | 45 | 2.0 | 4.0 | 0.00 | 0.00 | 0.00 | 74 | 1013.4 |
| 20260509214016 | 65 | 45 | 4.0 | 6.0 | 0.00 | 0.00 | 0.00 | 75 | 1013.1 |
| 20260509213037 | 65 | 45 | 3.0 | 9.0 | 0.00 | 0.00 | 0.00 | 75 | 1013.1 |
| 20260509212017 | 65 | 90 | 3.0 | 8.0 | 0.00 | 0.00 | 0.00 | 74 | 1013.1 |
| 20260509211016 | 65 | 0.0 | 2.0 | 0.00 | 0.00 | 0.00 | 72 | 1012.9 | |
| 20260509210016 | 65 | 45 | 4.0 | 9.0 | 0.00 | 0.00 | 0.00 | 74 | 1012.2 |
| 20260509205017 | 64 | 68 | 5.0 | 8.0 | 0.00 | 0.00 | 0.00 | 75 | 1012.4 |
| 20260509204016 | 64 | 68 | 3.0 | 6.0 | 0.00 | 0.00 | 0.00 | 75 | 1012.9 |
| 20260509203037 | 64 | 45 | 4.0 | 8.0 | 0.00 | 0.00 | 0.00 | 76 | 1013.6 |
| 20260509202016 | 63 | 23 | 5.0 | 8.0 | 0.00 | 0.00 | 0.00 | 78 | 1014.0 |
| 20260509201017 | 63 | 45 | 1.0 | 4.0 | 0.00 | 0.00 | 0.00 | 79 | 1014.4 |
| 20260509200016 | 63 | 0.0 | 1.0 | 0.00 | 0.00 | 0.00 | 79 | 1014.7 | |
| 20260509195016 | 63 | 45 | 1.0 | 2.0 | 0.00 | 0.00 | 0.00 | 79 | 1014.8 |
| 20260509194037 | 63 | 45 | 1.0 | 3.0 | 0.00 | 0.00 | 0.00 | 79 | 1014.8 |
| 20260509193016 | 63 | 0.0 | 0.0 | 0.00 | 0.00 | 0.00 | 79 | 1014.9 | |
| 20260509192017 | 63 | 0.0 | 0.0 | 0.00 | 0.00 | 0.00 | 78 | 1015.0 | |
| 20260509191016 | 63 | 0.0 | 1.0 | 0.00 | 0.00 | 0.00 | 78 | 1014.9 | |
| 20260509190016 | 63 | 0.0 | 0.0 | 0.00 | 0.00 | 0.00 | 78 | 1014.7 | |
| 20260509185016 | 63 | 90 | 1.0 | 2.0 | 0.00 | 0.00 | 0.00 | 77 | 1014.2 |
| 20260509184016 | 64 | 45 | 2.0 | 6.0 | 0.00 | 0.00 | 0.00 | 77 | 1013.9 |
| 20260509183016 | 65 | 338 | 3.0 | 6.0 | 0.00 | 0.00 | 0.00 | 75 | 1014.1 |
| 20260509182036 | 65 | 0.0 | 2.0 | 0.00 | 0.00 | 0.00 | 76 | 1014.1 | |
| 20260509181016 | 65 | 270 | 1.0 | 5.0 | 0.00 | 0.00 | 0.00 | 74 | 1014.0 |
| 20260509180036 | 66 | 203 | 1.0 | 3.0 | 0.00 | 0.00 | 0.00 | 73 | 1013.9 |
| 20260509175016 | 67 | 203 | 2.0 | 4.0 | 0.00 | 0.00 | 0.00 | 71 | 1013.7 |
| 20260509174016 | 68 | 203 | 2.0 | 4.0 | 0.00 | 0.00 | 0.00 | 67 | 1013.9 |
| 20260509173016 | 68 | 203 | 2.0 | 4.0 | 0.00 | 0.00 | 0.00 | 65 | 1013.9 |
| 20260509172016 | 69 | 203 | 2.0 | 5.0 | 0.00 | 0.00 | 0.00 | 63 | 1013.8 |
| 20260509171016 | 70 | 225 | 1.0 | 3.0 | 0.00 | 0.00 | 0.00 | 62 | 1013.8 |
| 20260509170016 | 71 | 203 | 2.0 | 6.0 | 0.00 | 0.00 | 0.00 | 61 | 1013.7 |
| 20260509165016 | 71 | 225 | 2.0 | 6.0 | 0.00 | 0.00 | 0.00 | 61 | 1013.7 |
| 20260509164016 | 71 | 203 | 3.0 | 10.0 | 0.00 | 0.00 | 0.00 | 61 | 1013.6 |
| 20260509163016 | 71 | 203 | 5.0 | 9.0 | 0.00 | 0.00 | 0.00 | 60 | 1013.6 |
| 20260509162036 | 72 | 203 | 4.0 | 10.0 | 0.00 | 0.00 | 0.00 | 60 | 1013.5 |
| 20260509161036 | 72 | 203 | 4.0 | 9.0 | 0.00 | 0.00 | 0.00 | 59 | 1013.5 |
| 20260509160016 | 72 | 203 | 3.0 | 8.0 | 0.00 | 0.00 | 0.00 | 60 | 1013.3 |
| 20260509155016 | 72 | 203 | 4.0 | 9.0 | 0.00 | 0.00 | 0.00 | 60 | 1013.6 |
| 20260509154016 | 73 | 203 | 4.0 | 8.0 | 0.00 | 0.00 | 0.00 | 60 | 1013.8 |
| 20260509153016 | 73 | 203 | 5.0 | 10.0 | 0.00 | 0.00 | 0.00 | 59 | 1013.8 |
| 20260509152016 | 73 | 203 | 5.0 | 11.0 | 0.00 | 0.00 | 0.00 | 59 | 1013.9 |
| 20260509151016 | 73 | 225 | 6.0 | 12.0 | 0.00 | 0.00 | 0.00 | 60 | 1013.9 |
| 20260509150016 | 72 | 203 | 7.0 | 13.0 | 0.00 | 0.00 | 0.00 | 60 | 1013.8 |
| 20260509145016 | 72 | 203 | 8.0 | 14.0 | 0.00 | 0.00 | 0.00 | 62 | 1013.9 |
| 20260509144016 | 73 | 203 | 8.0 | 13.0 | 0.00 | 0.00 | 0.00 | 62 | 1013.9 |
| 20260509143016 | 73 | 203 | 7.0 | 15.0 | 0.00 | 0.00 | 0.00 | 62 | 1013.7 |
| 20260509142017 | 73 | 203 | 7.0 | 11.0 | 0.00 | 0.00 | 0.00 | 61 | 1013.6 |
| 20260509141016 | 73 | 203 | 7.0 | 14.0 | 0.00 | 0.00 | 0.00 | 62 | 1013.9 |
| 20260509140016 | 73 | 203 | 8.0 | 18.0 | 0.00 | 0.00 | 0.00 | 60 | 1014.2 |
| 20260509135016 | 73 | 203 | 7.0 | 16.0 | 0.00 | 0.00 | 0.00 | 61 | 1014.2 |
| 20260509134016 | 73 | 203 | 9.0 | 16.0 | 0.00 | 0.00 | 0.00 | 60 | 1014.1 |
| 20260509133016 | 73 | 225 | 8.0 | 14.0 | 0.00 | 0.00 | 0.00 | 59 | 1014.1 |
| 20260509132036 | 73 | 203 | 8.0 | 16.0 | 0.00 | 0.00 | 0.00 | 59 | 1014.0 |
| 20260509131036 | 74 | 203 | 8.0 | 17.0 | 0.00 | 0.00 | 0.00 | 58 | 1014.0 |
| 20260509130015 | 74 | 203 | 7.0 | 14.0 | 0.00 | 0.00 | 0.00 | 59 | 1014.1 |
| 20260509125016 | 74 | 203 | 7.0 | 16.0 | 0.00 | 0.00 | 0.00 | 57 | 1014.1 |
| 20260509124016 | 75 | 203 | 6.0 | 12.0 | 0.00 | 0.00 | 0.00 | 56 | 1014.0 |
| 20260509122016 | 74 | 225 | 5.0 | 11.0 | 0.00 | 0.00 | 0.00 | 57 | 1014.2 |
| 20260509121016 | 73 | 225 | 6.0 | 13.0 | 0.00 | 0.00 | 0.00 | 58 | 1014.3 |
| 20260509120016 | 73 | 203 | 5.0 | 14.0 | 0.00 | 0.00 | 0.00 | 58 | 1014.4 |
| 20260509115015 | 73 | 248 | 5.0 | 13.0 | 0.00 | 0.00 | 0.00 | 58 | 1014.3 |
| 20260509114015 | 74 | 203 | 7.0 | 13.0 | 0.00 | 0.00 | 0.00 | 56 | 1014.3 |
| 20260509113016 | 75 | 225 | 7.0 | 13.0 | 0.00 | 0.00 | 0.00 | 54 | 1014.4 |
| 20260509112015 | 75 | 248 | 7.0 | 14.0 | 0.00 | 0.00 | 0.00 | 53 | 1014.3 |
| 20260509111016 | 76 | 225 | 7.0 | 14.0 | 0.00 | 0.00 | 0.00 | 51 | 1014.2 |
| 20260509110016 | 77 | 113 | 3.0 | 7.0 | 0.00 | 0.00 | 0.00 | 49 | 1014.1 |
| 20260509105015 | 76 | 113 | 4.0 | 13.0 | 0.00 | 0.00 | 0.00 | 48 | 1014.3 |
| 20260509104015 | 76 | 113 | 4.0 | 10.0 | 0.00 | 0.00 | 0.00 | 47 | 1014.2 |
| 20260509103015 | 75 | 113 | 4.0 | 8.0 | 0.00 | 0.00 | 0.00 | 47 | 1014.1 |
| 20260509102017 | 75 | 113 | 10.0 | 16.0 | 0.00 | 0.00 | 0.00 | 48 | 1014.2 |
| 20260509101016 | 75 | 113 | 6.0 | 12.0 | 0.00 | 0.00 | 0.00 | 49 | 1014.2 |
| 20260509100017 | 74 | 113 | 6.0 | 13.0 | 0.00 | 0.00 | 0.00 | 50 | 1014.2 |
| 20260509095036 | 74 | 90 | 5.0 | 14.0 | 0.00 | 0.00 | 0.00 | 49 | 1014.1 |
| 20260509094017 | 74 | 113 | 8.0 | 13.0 | 0.00 | 0.00 | 0.00 | 49 | 1014.2 |
| 20260509093017 | 74 | 113 | 7.0 | 16.0 | 0.00 | 0.00 | 0.00 | 51 | 1014.2 |
| 20260509092017 | 73 | 90 | 6.0 | 12.0 | 0.00 | 0.00 | 0.00 | 50 | 1014.3 |
| 20260509091017 | 73 | 113 | 7.0 | 14.0 | 0.00 | 0.00 | 0.00 | 50 | 1014.3 |
| 20260509090037 | 72 | 113 | 8.0 | 14.0 | 0.00 | 0.00 | 0.00 | 50 | 1014.3 |
| 20260509085017 | 72 | 90 | 8.0 | 13.0 | 0.00 | 0.00 | 0.00 | 49 | 1014.3 |
| 20260509084017 | 72 | 90 | 7.0 | 16.0 | 0.00 | 0.00 | 0.00 | 51 | 1014.3 |
| 20260509083017 | 71 | 90 | 7.0 | 13.0 | 0.00 | 0.00 | 0.00 | 52 | 1014.2 |
| 20260509082017 | 71 | 90 | 8.0 | 18.0 | 0.00 | 0.00 | 0.00 | 51 | 1014.2 |
| 20260509081017 | 70 | 90 | 9.0 | 16.0 | 0.00 | 0.00 | 0.00 | 57 | 1014.2 |
| 20260509080017 | 70 | 90 | 6.0 | 11.0 | 0.00 | 0.00 | 0.00 | 59 | 1014.2 |
| 20260509075017 | 69 | 68 | 5.0 | 11.0 | 0.00 | 0.00 | 0.00 | 61 | 1014.1 |
| 20260509074019 | 69 | 113 | 4.0 | 11.0 | 0.00 | 0.00 | 0.00 | 64 | 1014.2 |
| 20260509073017 | 68 | 113 | 4.0 | 9.0 | 0.00 | 0.00 | 0.00 | 64 | 1014.4 |
| 20260509072017 | 67 | 90 | 3.0 | 8.0 | 0.00 | 0.00 | 0.00 | 64 | 1014.5 |
| 20260509071037 | 67 | 68 | 3.0 | 6.0 | 0.00 | 0.00 | 0.00 | 65 | 1014.6 |
| 20260509070037 | 66 | 90 | 4.0 | 8.0 | 0.00 | 0.00 | 0.00 | 66 | 1014.7 |
| 20260509065017 | 65 | 113 | 4.0 | 7.0 | 0.00 | 0.00 | 0.00 | 70 | 1014.8 |
| 20260509064017 | 65 | 113 | 2.0 | 5.0 | 0.00 | 0.00 | 0.00 | 71 | 1014.9 |